Aeroporto :
LOGIN :

Iscrizione | Disclaimer

   EN    FR    IT 

 










Sommario :    VFR   VFR Marginale   IFR   IFR Intensivo   IFR Molto Intensivo
Visibilità : 
Base nubi : 
>= 8 km
>= 3000ft
5 / 8 km
1000 / 3000 ft
1500m / 5 km
500 / 1000 ft
800 / 1500m
200 / 500 ft
< 800m
< 200 ft
Simboli :   Temporali  Nebbia  Neve Forte  Precipitazioni Forti  Vento > 20 kt
SIGMETs :   Varie  Temporali  Ghiacco  Turbolenza  Onda orograficha  Ceneri Vulcaniche







- Altitudine del aeroporto : 1585 ft
- Codice IATA : SIR


LSGS - Sion

ULTIMO METAR :
  • 210520Z VRB01KT CAVOK 19/13 Q1020

METARs OBSOLETI :
  • 210450Z 11001KT 9999 FEW130 19/13 Q1020
  • 210420Z AUTO 12002KT CAVOK 19/13 Q1020
  • 210350Z AUTO 00000KT CAVOK 19/14 Q1020
  • 210320Z AUTO 00000KT CAVOK 19/13 Q1020
  • 210250Z AUTO VRB01KT CAVOK 20/13 Q1020

TAF TAF LSGS
Valido dal 21 a 03 ore il 21 a 12 ore UTC


210225Z 2103/2112 VRB03KT CAVOK
BECMG 2110/2112 25012KT 9999 FEW070
Nessun NOTAM noto per questo aeroporto.



MetMap, La meteo Aeronautica in un colpo d'occhio ! - Copyright ORBIFLY Dicembre 2007 - Disclaimer

ORBIFLY MET'MAP TEAM :

Programmazione e sviluppo : Alexandra Zaïnal
Concezione e sviluppo : Baudouin d'Aumeries
Co-Programmazione e sviluppo : Marc-Olivier Méhu
Supporto tecnico e logistico : Manuel Goepfert
Aiuto per la traduzione : Arnaldo La Scala

Contatto : metmap@orbifly.com




FONTI E CREDITI :

   NOAA